This is the latest recevied weather packets stored in our database for station/object W7PLC. If no packets are shown the sender has not sent any weather packets the latest 10 day(s).
| Time | Temp. | Humidity | Pressure | Rain* | Wind** | Luminosity | Snow |
|---|---|---|---|---|---|---|---|
| 1777674149 | 26.67° C | 49% | 1012.9 hPa | 0 mm | - | 352 W/m² | - |
| 1777673846 | 26.67° C | 48% | 1012.9 hPa | 0 mm | - | 639 W/m² | - |
| 1777673543 | 26.11° C | 49% | 1012.8 hPa | 0 mm | - | 663 W/m² | - |
| 1777673241 | 26.67° C | 49% | 1013.1 hPa | 0 mm | - | 667 W/m² | - |
| 1777672938 | 26.67° C | 48% | 1013.2 hPa | 0 mm | - | 580 W/m² | - |
| 1777672635 | 26.67° C | 48% | 1013 hPa | 0 mm | - | 675 W/m² | - |
| 1777672330 | 26.67° C | 48% | 1013 hPa | 0 mm | - | 375 W/m² | - |
| 1777672025 | 26.67° C | 48% | 1013.1 hPa | 0 mm | - | 528 W/m² | - |
| 1777671418 | 26.11° C | 49% | 1013.3 hPa | 0 mm | - | 592 W/m² | - |
| 1777671114 | 25° C | 50% | 1013.3 hPa | 0 mm | - | 575 W/m² | - |
| 1777670810 | 26.11° C | 48% | 1013.4 hPa | 0 mm | - | 487 W/m² | - |
| 1777670507 | 25.56° C | 48% | 1013.6 hPa | 0 mm | - | 595 W/m² | - |
| 1777670204 | 25.56° C | 49% | 1013.4 hPa | 0 mm | - | 583 W/m² | - |
| 1777669598 | 25° C | 49% | 1013.6 hPa | 0 mm | - | 567 W/m² | - |
| 1777668991 | 25° C | 49% | 1013.7 hPa | 0 mm | - | 620 W/m² | - |
| 1777668689 | 24.44° C | 49% | 1013.9 hPa | 0 mm | - | 637 W/m² | - |
| 1777668081 | 23.89° C | 50% | 1013.9 hPa | 0 mm | - | 444 W/m² | - |
| 1777667778 | 23.89° C | 49% | 1013.9 hPa | 0 mm | - | 233 W/m² | - |
| 1777667476 | 23.89° C | 48% | 1013.7 hPa | 0 mm | - | 263 W/m² | - |
| 1777667173 | 24.44° C | 49% | 1013.9 hPa | 0 mm | - | 285 W/m² | - |
| 1777666263 | 23.89° C | 49% | 1013.9 hPa | 0 mm | - | 598 W/m² | - |
| 1777665960 | 22.78° C | 50% | 1014.1 hPa | 0 mm | - | 413 W/m² | - |
| 1777665657 | 23.33° C | 49% | 1013.9 hPa | 0 mm | - | 653 W/m² | - |
| 1777665355 | 23.89° C | 50% | 1014.2 hPa | 0 mm | - | 707 W/m² | - |
| 1777665050 | 22.78° C | 50% | 1014.5 hPa | 0 mm | - | 483 W/m² | - |
* Rain latest hour (hover to see other rain measurements)
** Current wind speed in m/s (hover to see current wind gust speed)